Wind_Speed
29 29 28 28 28 28 28 28 28 27 26 26 25 25 25 26 26 25 24 23 23 23 24 24 24 24 24 24 24 25 25 25 25 25 25 25 25 25 25 25 25 25 25
31 30 31 31 30 30 29 29 29 29 28 28 27 26 26 27 27 27 27 26 25 25 25 25 25 25 25 25 26 26 26 26 27 27 28 27 27 27 27 26 26 26 26
32 33 32 32 32 31 31 30 29 29 29 29 28 28 28 27 28 28 28 28 27 27 27 27 26 26 27 27 27 27 27 27 27 28 28 28 28 28 28 28 28 28 28
34 34 34 33 33 32 31 31 30 30 30 30 30 29 29 29 28 28 29 28 29 28 28 28 28 28 28 28 28 29 29 29 29 30 30 30 30 29 29 29 29 29 29
36 35 35 35 34 33 33 33 32 32 31 31 31 31 30 31 30 30 30 30 30 30 30 30 30 30 29 30 30 30 30 31 31 31 31 31 31 31 30 31 31 31 32
37 36 36 36 36 35 35 35 34 34 33 33 33 32 32 32 32 32 32 32 31 30 30 31 31 31 30 31 31 32 32 32 32 32 33 33 33 33 33 32 32 32 33
39 38 38 37 37 36 36 37 37 36 34 34 34 34 34 33 33 33 33 33 32 31 31 31 31 31 31 31 31 32 32 33 33 34 34 34 34 34 34 34 34 34 34
42 41 40 39 38 38 37 37 37 37 37 36 36 36 35 35 34 34 34 34 34 34 33 32 32 32 32 32 32 33 33 33 34 35 35 35 35 36 36 36 36 36 35
44 43 42 41 40 40 39 38 38 38 37 38 37 37 36 36 36 36 35 35 35 35 35 34 33 34 33 34 34 35 35 35 35 36 36 36 36 36 37 37 37 36 36
45 45 44 43 42 42 41 39 39 39 39 39 38 38 38 37 37 37 37 37 36 35 35 35 35 36 35 35 35 36 36 37 37 36 37 37 37 37 38 38 38 38 37
46 46 45 45 44 44 43 42 41 41 41 40 40 39 39 38 37 38 38 38 37 37 36 36 36 37 37 36 36 37 37 37 37 38 38 38 38 39 38 39 39 39 39
47 47 47 46 46 46 45 45 44 43 43 42 42 41 40 40 39 39 38 38 38 38 37 37 37 37 37 37 37 38 38 38 38 38 38 39 39 40 40 40 40 40 40
48 48 47 47 47 46 46 46 45 45 45 44 42 42 42 42 41 40 40 39 39 39 38 38 38 38 38 38 39 39 39 39 39 39 39 39 40 40 39 39 40 40 40
49 48 49 48 47 47 47 47 46 45 45 44 43 43 43 43 42 42 41 40 40 39 39 39 40 40 40 39 39 39 39 39 39 40 40 40 40 40 40 40 40 41 40
48 48 48 48 47 48 48 48 47 46 46 46 46 45 44 44 43 43 42 41 41 40 40 40 40 40 40 40 40 40 40 40 40 40 41 41 40 40 41 41 41 41 40
48 48 48 48 48 49 49 49 49 48 48 47 47 46 46 45 44 44 44 43 42 42 41 40 40 41 41 41 41 41 41 41 41 41 41 41 40 40 40 40 40 41 41
48 48 48 49 49 49 49 50 49 49 48 48 47 47 47 46 45 45 45 44 43 43 42 41 41 42 42 42 42 42 42 42 42 42 42 41 41 41 41 41 41 41 41
49 48 48 49 50 50 50 49 49 48 48 48 47 47 47 46 46 46 46 46 45 44 43 42 42 42 43 43 43 42 42 43 42 42 42 42 42 42 41 41 41 41 41
48 48 48 48 49 49 49 50 50 50 50 49 48 48 48 48 48 48 48 47 46 45 45 44 43 43 43 43 43 43 44 43 43 42 42 42 42 41 41 42 42 42 42
48 48 47 47 48 48 49 50 49 49 50 49 49 49 49 49 48 49 48 48 47 46 46 45 44 44 44 44 44 44 43 43 43 42 42 42 42 42 42 42 42 43 43
46 47 47 46 47 47 48 49 49 49 49 49 49 50 50 50 49 48 49 48 48 48 48 47 46 46 46 45 45 44 43 43 43 42 42 42 42 42 42 42 42 42 42
45 45 45 45 45 46 47 47 48 48 48 48 49 50 50 50 50 49 49 49 49 48 48 48 47 47 46 45 45 44 44 43 42 42 42 42 42 42 42 42 41 41 41
45 45 45 45 45 46 46 46 46 46 47 47 48 49 49 50 50 50 49 48 48 48 48 48 47 46 46 45 45 44 43 43 42 42 42 42 41 40 40 40 40 41 41
45 45 44 44 45 46 47 47 47 46 46 46 46 47 47 48 48 48 48 47 48 48 48 48 47 47 46 45 45 44 43 43 42 42 41 41 41 41 40 40 41 41 42
44 44 44 44 44 45 46 47 47 47 47 46 46 46 46 46 46 46 47 47 47 47 47 47 47 47 46 45 44 44 43 43 42 41 41 41 41 41 41 41 42 42 43
44 43 44 44 44 44 45 46 47 47 47 47 46 46 45 45 45 44 45 46 46 46 46 46 46 46 45 45 44 44 43 43 42 42 42 42 42 41 41 41 42 43 44
Wind_Direction
249 251 251 252 252 252 253 253 250 251 251 251 251 251 252 252 252 252 252 253 254 255 255 255 257 259 260 262 264 265 266 266 267 268 269 270 271 271 272 272 272 272 272
250 251 252 252 253 252 252 252 251 250 250 250 250 251 251 252 252 253 254 254 255 256 256 257 258 259 261 263 264 265 266 267 268 268 269 270 270 271 272 272 272 272 273
251 252 253 253 253 253 251 251 250 250 250 249 250 251 251 252 253 254 254 255 256 257 258 259 259 260 261 262 264 264 266 267 269 270 271 271 270 270 270 271 271 272 272
250 251 252 252 252 252 250 250 249 249 249 249 249 251 251 252 253 254 255 256 257 258 259 260 260 261 261 262 264 264 266 267 268 271 271 271 271 271 271 270 270 272 272
251 251 252 252 252 252 250 249 249 250 250 249 249 250 251 252 253 254 255 256 257 258 259 260 261 261 261 262 264 265 266 268 269 270 269 270 271 272 272 272 271 272 273
252 252 252 252 252 252 250 249 249 250 250 250 250 250 251 252 253 254 255 255 255 257 260 260 261 261 262 263 265 266 266 267 268 269 270 270 271 272 272 272 271 272 273
251 252 251 251 251 250 250 250 248 249 250 250 250 251 251 253 255 255 255 255 257 259 261 261 261 261 262 263 265 265 265 267 268 269 270 271 272 273 272 271 271 272 273
250 251 251 251 252 250 250 250 249 249 250 250 251 252 252 253 255 256 257 258 259 260 261 261 262 263 263 263 264 264 266 267 269 270 271 273 274 273 272 271 271 272 273
250 250 250 251 251 250 250 249 248 249 251 251 251 251 253 255 256 256 258 259 260 260 261 262 263 264 265 265 265 265 267 269 270 271 272 273 274 273 271 271 272 272 273
249 250 250 250 251 249 249 249 248 249 250 251 252 252 253 256 256 257 257 258 259 260 262 263 265 266 267 267 266 267 267 269 271 272 272 273 274 274 273 272 272 272 273
249 249 249 249 249 248 248 247 248 249 249 251 253 254 255 256 257 258 257 258 259 260 261 263 265 266 266 267 267 268 268 269 271 272 273 274 274 274 274 273 273 272 273
248 249 249 248 248 248 248 247 248 249 251 251 253 253 255 257 258 258 258 259 260 260 261 263 264 264 265 266 268 269 270 271 272 272 273 274 274 275 275 274 274 273 273
248 248 248 248 247 247 248 247 248 249 250 251 252 253 255 257 258 258 259 259 261 261 262 262 263 264 265 266 268 269 270 272 272 273 274 275 275 276 275 275 275 274 274
248 247 248 247 247 247 247 247 248 248 249 250 252 254 255 257 258 259 260 260 261 261 262 263 263 264 265 266 267 268 270 272 273 273 274 275 276 276 276 275 275 274 274
247 247 247 247 248 247 247 247 248 249 249 249 251 253 255 256 257 258 259 260 260 261 261 263 264 265 264 265 267 269 270 272 273 273 274 274 275 276 277 275 274 274 274
248 248 247 247 247 247 248 248 249 250 250 250 251 252 254 255 256 258 258 259 260 261 262 262 263 264 265 267 269 269 271 272 273 273 274 275 276 277 277 276 275 275 274
248 248 247 246 247 248 248 248 249 250 250 251 251 252 254 255 255 257 258 259 260 261 261 261 263 264 266 268 269 270 271 272 273 274 274 274 275 276 276 275 275 274 273
249 248 247 247 247 248 249 249 249 249 250 251 252 252 253 253 255 256 258 259 260 260 261 262 263 265 266 268 269 270 271 272 273 274 274 274 274 275 275 275 275 275 275
248 248 248 247 247 248 248 249 249 250 250 251 252 252 252 253 255 256 258 258 259 260 261 262 263 265 267 268 269 270 272 273 273 273 274 274 274 274 275 275 276 276 275
248 248 249 248 248 249 248 248 249 250 250 250 251 251 252 254 255 256 256 257 258 259 261 262 263 265 266 267 269 270 271 272 273 273 273 274 274 274 275 276 276 276 276
248 248 248 248 248 249 249 249 248 249 249 250 251 251 252 253 255 256 256 257 258 259 260 262 264 265 266 267 269 270 271 271 272 273 273 273 273 274 275 275 276 276 276
249 248 248 247 248 248 249 249 248 248 249 250 251 251 252 253 253 255 257 257 258 259 260 262 263 265 267 267 268 269 270 270 271 272 273 273 272 273 275 275 275 276 276
249 249 248 247 248 249 249 248 248 248 249 250 251 252 252 252 253 255 256 257 257 258 260 261 263 265 266 266 267 268 268 269 271 271 271 271 272 273 275 275 275 276 277
249 249 248 248 249 249 249 248 248 248 249 250 251 251 251 252 253 254 254 255 256 258 259 261 262 263 264 264 265 266 267 268 269 270 271 271 272 273 274 275 276 278 278
249 249 248 248 249 249 248 248 249 248 249 251 251 251 251 251 252 254 254 255 257 258 259 260 261 262 263 263 264 266 267 268 269 269 270 272 272 273 274 276 277 279 279
249 249 248 248 248 248 249 249 249 249 249 250 250 250 250 251 252 253 255 256 256 257 258 259 260 261 261 262 263 265 266 267 267 268 270 271 272 273 275 276 279 280 281
Height
5784 5786 5787 5788 5790 5791 5793 5795 5796 5798 5800 5802 5804 5806 5808 5809 5810 5812 5814 5815 5816 5817 5818 5819 5820 5822 5823 5823 5824 5825 5825 5826 5827 5827 5828 5828 5829 5829 5829 5829 5829 5829 5830
5777 5778 5780 5781 5783 5785 5786 5788 5790 5792 5794 5796 5798 5800 5802 5803 5805 5806 5808 5809 5811 5812 5813 5814 5815 5816 5817 5818 5818 5819 5820 5820 5821 5821 5822 5822 5823 5823 5823 5823 5824 5824 5824
5770 5771 5773 5774 5776 5778 5780 5781 5783 5785 5787 5790 5792 5794 5795 5797 5799 5800 5802 5803 5805 5806 5807 5808 5809 5810 5811 5812 5813 5813 5814 5814 5815 5815 5815 5816 5816 5816 5817 5817 5817 5818 5818
5762 5763 5765 5767 5768 5770 5772 5774 5776 5778 5780 5783 5785 5787 5789 5791 5792 5794 5796 5797 5798 5800 5801 5802 5803 5804 5805 5806 5806 5807 5808 5808 5808 5809 5809 5809 5809 5810 5810 5810 5811 5811 5811
5753 5755 5757 5759 5761 5763 5765 5766 5769 5771 5773 5775 5778 5780 5782 5784 5785 5787 5789 5790 5792 5793 5794 5796 5796 5797 5798 5799 5799 5800 5801 5801 5802 5802 5802 5802 5802 5803 5803 5803 5803 5804 5804
5744 5746 5748 5751 5752 5754 5757 5759 5761 5763 5766 5768 5770 5772 5774 5776 5778 5780 5782 5783 5784 5786 5787 5788 5789 5790 5791 5792 5792 5792 5793 5794 5794 5794 5794 5794 5795 5795 5795 5796 5796 5796 5796
5735 5737 5739 5741 5743 5745 5748 5750 5753 5755 5757 5760 5762 5764 5766 5768 5770 5772 5774 5775 5777 5778 5780 5781 5782 5783 5784 5784 5785 5785 5785 5786 5786 5787 5787 5787 5787 5787 5787 5788 5788 5788 5788
5724 5727 5729 5732 5734 5736 5739 5741 5744 5746 5749 5752 5754 5756 5758 5761 5762 5764 5766 5767 5769 5770 5772 5773 5774 5775 5776 5776 5777 5777 5777 5778 5778 5778 5778 5779 5779 5779 5779 5779 5779 5779 5779
5713 5716 5719 5722 5724 5727 5730 5732 5735 5738 5740 5743 5745 5748 5750 5752 5754 5756 5758 5759 5761 5762 5763 5765 5766 5766 5767 5768 5769 5769 5769 5769 5769 5769 5770 5770 5770 5770 5770 5770 5770 5770 5770
5701 5704 5707 5710 5713 5717 5720 5722 5725 5728 5731 5733 5736 5739 5741 5743 5745 5748 5749 5751 5752 5754 5755 5756 5757 5758 5758 5759 5760 5760 5760 5761 5761 5761 5761 5761 5761 5761 5761 5760 5760 5761 5761
5689 5692 5695 5699 5702 5705 5709 5712 5715 5718 5721 5724 5726 5729 5731 5734 5736 5738 5740 5742 5744 5745 5746 5747 5748 5749 5749 5750 5751 5751 5751 5752 5752 5752 5752 5751 5751 5751 5751 5751 5751 5751 5751
5677 5680 5683 5687 5690 5694 5697 5701 5704 5707 5710 5713 5716 5719 5722 5724 5726 5729 5731 5732 5734 5736 5737 5738 5739 5739 5740 5741 5741 5742 5742 5742 5742 5742 5742 5742 5741 5741 5741 5740 5740 5740 5741
5664 5667 5671 5674 5678 5682 5685 5689 5692 5696 5699 5702 5705 5708 5711 5714 5716 5718 5721 5722 5724 5726 5727 5728 5729 5730 5731 5731 5732 5732 5732 5733 5732 5732 5732 5731 5731 5731 5730 5730 5730 5730 5730
5651 5655 5658 5661 5665 5669 5673 5677 5681 5684 5687 5691 5694 5697 5700 5703 5705 5708 5710 5712 5714 5716 5718 5719 5719 5720 5721 5721 5722 5722 5723 5723 5722 5722 5722 5721 5721 5720 5720 5720 5719 5719 5719
5638 5642 5645 5649 5653 5657 5661 5665 5669 5672 5676 5680 5683 5686 5689 5692 5694 5697 5699 5701 5704 5706 5708 5709 5709 5710 5710 5711 5712 5712 5713 5712 5712 5712 5711 5711 5711 5710 5709 5709 5709 5709 5709
5625 5628 5632 5636 5640 5644 5648 5652 5656 5660 5664 5667 5671 5674 5677 5680 5683 5685 5687 5690 5692 5694 5697 5699 5699 5699 5700 5700 5701 5702 5702 5702 5701 5701 5701 5700 5700 5699 5699 5698 5698 5698 5698
5611 5615 5619 5623 5627 5630 5634 5639 5643 5647 5651 5655 5658 5662 5665 5668 5671 5673 5676 5678 5680 5682 5685 5688 5688 5688 5689 5690 5690 5691 5691 5691 5690 5690 5689 5689 5689 5688 5688 5688 5688 5688 5687
5598 5602 5606 5609 5613 5617 5621 5626 5630 5634 5638 5642 5645 5649 5652 5656 5659 5661 5664 5666 5668 5671 5673 5676 5677 5677 5678 5678 5679 5679 5679 5679 5679 5678 5678 5678 5678 5677 5677 5677 5677 5676 5676
5585 5589 5593 5597 5600 5604 5608 5612 5617 5621 5625 5629 5633 5636 5639 5643 5646 5649 5651 5654 5656 5658 5661 5663 5665 5666 5666 5667 5667 5668 5668 5667 5667 5667 5667 5666 5666 5666 5666 5666 5665 5665 5664
5573 5576 5580 5584 5587 5591 5595 5599 5603 5607 5612 5616 5619 5623 5626 5630 5633 5635 5638 5641 5643 5646 5648 5650 5652 5653 5654 5654 5655 5656 5656 5656 5655 5655 5655 5655 5655 5655 5654 5654 5654 5653 5652
5560 5563 5567 5571 5574 5578 5582 5586 5590 5594 5598 5602 5606 5609 5613 5616 5619 5622 5625 5628 5630 5633 5635 5637 5639 5641 5642 5643 5643 5643 5644 5644 5644 5644 5644 5644 5644 5643 5643 5642 5641 5641 5640
5547 5550 5554 5557 5561 5565 5568 5572 5576 5580 5585 5589 5592 5596 5599 5602 5605 5608 5611 5614 5617 5619 5622 5624 5626 5628 5629 5630 5631 5631 5631 5632 5633 5633 5632 5632 5632 5632 5631 5631 5630 5629 5628
5534 5538 5541 5545 5549 5552 5555 5559 5563 5567 5572 5575 5579 5582 5585 5589 5592 5595 5598 5601 5603 5606 5608 5611 5613 5615 5616 5618 5618 5619 5619 5619 5620 5620 5620 5620 5620 5620 5619 5618 5618 5617 5616
5522 5526 5529 5533 5536 5540 5543 5547 5550 5554 5559 5562 5566 5569 5572 5575 5578 5581 5584 5587 5590 5592 5595 5597 5600 5602 5602 5603 5604 5606 5606 5607 5608 5608 5608 5609 5609 5608 5608 5607 5606 5605 5604
5510 5513 5517 5520 5524 5527 5531 5534 5538 5542 5546 5550 5553 5556 5559 5562 5566 5569 5572 5575 5577 5579 5581 5583 5586 5587 5589 5590 5591 5592 5594 5595 5596 5596 5596 5597 5597 5596 5596 5595 5594 5593 5591
5497 5500 5504 5508 5511 5515 5518 5522 5525 5529 5533 5537 5540 5543 5546 5550 5553 5555 5558 5561 5564 5567 5568 5570 5572 5574 5575 5577 5578 5580 5581 5582 5583 5585 5585 5585 5585 5584 5584 5584 5582 5580 5579